• In Belgium
  • List of Countries
  • For 7 days
  • Water Temperature
  • Satellite Maps
  • Weather Map
  • Weather Widgets
  • user-avatar
    Login

    Hourly Weather Ostend

    Today, 18 January, Thursday

    Time Temperature Precipitation Wind Pressure Humidity
    00:00 +2°C° 0 mm 9 mps 752 mmHg 85%
    01:00 +3°C° 1.6 mm 11 mps 750 mmHg 84%
    02:00 +4°C° 1.6 mm 13 mps 748 mmHg 84%
    03:00 +4°C° 1.6 mm 15 mps 746 mmHg 84%
    04:00 +5°C° 0.1 mm 16 mps 745 mmHg 81%
    05:00 +7°C° 0.1 mm 16 mps 744 mmHg 78%
    06:00 +7°C° 0 mm 16 mps 742 mmHg 77%
    07:00 +7°C° 0 mm 17 mps 743 mmHg 74%
    08:00 +6°C° 0 mm 17 mps 745 mmHg 70%
    09:00 +5°C° 0 mm 17 mps 746 mmHg 67%
    10:00 +5°C° 0 mm 15 mps 747 mmHg 65%
    11:00 +5°C° 0 mm 14 mps 749 mmHg 64%
    12:00 +5°C° 0 mm 12 mps 750 mmHg 63%
    13:00 +6°C° 0.1 mm 11 mps 750 mmHg 65%
    14:00 +6°C° 0.1 mm 10 mps 750 mmHg 66%
    15:00 +6°C° 0.1 mm 8 mps 750 mmHg 68%
    16:00 +5°C° 0.4 mm 8 mps 750 mmHg 71%
    17:00 +5°C° 0.4 mm 8 mps 751 mmHg 74%
    18:00 +4°C° 0.4 mm 8 mps 751 mmHg 77%
    19:00 +4°C° 0.2 mm 8 mps 751 mmHg 76%
    20:00 +4°C° 0.2 mm 8 mps 751 mmHg 76%
    21:00 +2°C° 0.2 mm 8 mps 751 mmHg 75%
    22:00 +2°C° 0.1 mm 8 mps 752 mmHg 75%
    23:00 +2°C° 0.1 mm 8 mps 752 mmHg 76%

    Tomorrow, 19 January, Friday

    Time Temperature Precipitation Wind Pressure Humidity
    00:00 +1°C° 0.1 mm 8 mps 753 mmHg 76%
    01:00 +1°C° 0 mm 8 mps 753 mmHg 77%
    02:00 +1°C° 0 mm 8 mps 753 mmHg 77%
    03:00 +1°C° 0 mm 8 mps 753 mmHg 78%
    04:00 0°C° 0 mm 7 mps 754 mmHg 79%
    05:00 0°C° 0 mm 7 mps 754 mmHg 79%
    06:00 0°C° 0 mm 7 mps 755 mmHg 80%
    07:00 0°C° 0.1 mm 7 mps 755 mmHg 79%
    08:00 0°C° 0.1 mm 7 mps 756 mmHg 79%
    09:00 0°C° 0.1 mm 7 mps 756 mmHg 78%
    10:00 +2°C° 0.1 mm 7 mps 756 mmHg 73%
    11:00 +3°C° 0.1 mm 7 mps 756 mmHg 67%
    12:00 +4°C° 0.1 mm 7 mps 756 mmHg 62%
    13:00 +4°C° 0.1 mm 7 mps 756 mmHg 63%
    14:00 +4°C° 0.1 mm 7 mps 756 mmHg 64%
    15:00 +4°C° 0.1 mm 7 mps 756 mmHg 65%
    16:00 +3°C° 0.2 mm 7 mps 756 mmHg 67%
    17:00 +1°C° 0.2 mm 8 mps 756 mmHg 69%
    18:00 +1°C° 0.2 mm 8 mps 756 mmHg 71%
    19:00 +1°C° 0.2 mm 8 mps 756 mmHg 71%
    20:00 +1°C° 0.2 mm 8 mps 756 mmHg 71%
    21:00 0°C° 0.2 mm 8 mps 756 mmHg 71%
    22:00 0°C° 0.1 mm 8 mps 756 mmHg 72%
    23:00 0°C° 0.1 mm 8 mps 756 mmHg 73%

    Day after tomorrow, 20 January, Saturday

    Time Temperature Precipitation Wind Pressure Humidity
    00:00 0°C° 0.1 mm 8 mps 756 mmHg 73%
    01:00 0°C° 0 mm 7 mps 756 mmHg 74%
    02:00 0°C° 0 mm 7 mps 756 mmHg 75%
    03:00 +1°C° 0 mm 6 mps 756 mmHg 76%
    04:00 +1°C° 0.1 mm 6 mps 755 mmHg 77%
    05:00 +1°C° 0.1 mm 6 mps 755 mmHg 79%
    06:00 +1°C° 0.1 mm 5 mps 755 mmHg 81%
    07:00 +1°C° 0.1 mm 5 mps 754 mmHg 83%
    08:00 +1°C° 0.1 mm 4 mps 754 mmHg 85%
    09:00 +1°C° 0.1 mm 4 mps 754 mmHg 87%
    10:00 +3°C° 0.1 mm 4 mps 754 mmHg 83%
    11:00 +4°C° 0.1 mm 4 mps 753 mmHg 78%
    12:00 +5°C° 0.1 mm 4 mps 753 mmHg 74%
    13:00 +5°C° 0 mm 5 mps 754 mmHg 73%
    14:00 +4°C° 0 mm 6 mps 754 mmHg 72%
    15:00 +4°C° 0 mm 6 mps 755 mmHg 71%
    16:00 +3°C° 0 mm 7 mps 756 mmHg 73%
    17:00 +2°C° 0 mm 7 mps 756 mmHg 75%
    18:00 0°C° 0 mm 7 mps 757 mmHg 77%
    19:00 +1°C° 0 mm 6 mps 758 mmHg 77%
    20:00 +1°C° 0 mm 6 mps 759 mmHg 77%
    21:00 +1°C° 0 mm 5 mps 760 mmHg 78%
    22:00 +1°C° 0 mm 4 mps 760 mmHg 77%
    23:00 +1°C° 0 mm 4 mps 761 mmHg 76%

    21 January, Sunday

    Time Temperature Precipitation Wind Pressure Humidity
    00:00 +2°C° 0 mm 3 mps 761 mmHg 76%
    01:00 +2°C° 0 mm 3 mps 762 mmHg 77%
    02:00 +2°C° 0 mm 3 mps 762 mmHg 78%
    03:00 +2°C° 0 mm 3 mps 762 mmHg 79%
    04:00 +1°C° 0.2 mm 4 mps 761 mmHg 79%
    05:00 +1°C° 0.2 mm 4 mps 761 mmHg 80%
    06:00 +1°C° 0.2 mm 5 mps 761 mmHg 81%
    07:00 +1°C° 0.9 mm 6 mps 761 mmHg 82%
    08:00 0°C° 0.9 mm 7 mps 760 mmHg 84%
    09:00 0°C° 0.9 mm 8 mps 760 mmHg 85%
    10:00 0°C° 0.9 mm 8 mps 759 mmHg 86%
    11:00 +1°C° 0.9 mm 9 mps 759 mmHg 88%
    12:00 +1°C° 0.9 mm 9 mps 758 mmHg 89%
    13:00 +1°C° 1.4 mm 9 mps 758 mmHg 91%
    14:00 +2°C° 1.4 mm 8 mps 757 mmHg 93%
    15:00 +4°C° 1.4 mm 7 mps 756 mmHg 95%
    16:00 +5°C° 1.8 mm 7 mps 756 mmHg 94%
    17:00 +7°C° 1.8 mm 8 mps 756 mmHg 94%
    18:00 +9°C° 1.8 mm 8 mps 756 mmHg 93%
    19:00 +10°C° 1.4 mm 8 mps 756 mmHg 92%
    20:00 +10°C° 1.4 mm 9 mps 757 mmHg 91%
    21:00 +10°C° 1.4 mm 9 mps 757 mmHg 91%
    22:00 +10°C° 0 mm 8 mps 758 mmHg 91%
    23:00 +10°C° 0 mm 8 mps 758 mmHg 92%

    22 January, Monday

    Time Temperature Precipitation Wind Pressure Humidity
    00:00 +10°C° 0 mm 7 mps 759 mmHg 93%
    01:00 +10°C° 0 mm 7 mps 759 mmHg 94%
    02:00 +10°C° 0 mm 6 mps 759 mmHg 94%
    03:00 +10°C° 0 mm 5 mps 760 mmHg 95%
    04:00 +10°C° 0 mm 5 mps 760 mmHg 95%
    05:00 +10°C° 0 mm 4 mps 760 mmHg 96%
    06:00 +10°C° 0 mm 4 mps 761 mmHg 96%
    07:00 +10°C° 0 mm 3 mps 761 mmHg 96%
    08:00 +10°C° 0 mm 3 mps 761 mmHg 96%
    09:00 +10°C° 0 mm 3 mps 761 mmHg 96%
    10:00 +10°C° 0.1 mm 4 mps 761 mmHg 96%
    11:00 +11°C° 0.1 mm 4 mps 761 mmHg 96%
    12:00 +10°C° 0.1 mm 5 mps 761 mmHg 95%
    13:00 +10°C° 0.1 mm 6 mps 761 mmHg 93%
    14:00 +11°C° 0.1 mm 7 mps 761 mmHg 91%
    15:00 +11°C° 0.1 mm 8 mps 761 mmHg 89%
    16:00 +11°C° 0 mm 8 mps 760 mmHg 89%
    17:00 +11°C° 0 mm 8 mps 760 mmHg 89%
    18:00 +11°C° 0 mm 9 mps 760 mmHg 89%
    19:00 +11°C° 0.1 mm 9 mps 760 mmHg 88%
    20:00 +11°C° 0.1 mm 10 mps 760 mmHg 87%
    21:00 +11°C° 0.1 mm 10 mps 760 mmHg 86%
    22:00 +11°C° 0.1 mm 10 mps 760 mmHg 87%
    23:00 +11°C° 0.1 mm 10 mps 760 mmHg 87%

    23 January, Tuesday

    Time Temperature Precipitation Wind Pressure Humidity
    00:00 +11°C° 0.1 mm 10 mps 760 mmHg 88%
    01:00 +11°C° 0 mm 10 mps 761 mmHg 88%
    02:00 +9°C° 0 mm 10 mps 761 mmHg 89%
    03:00 +9°C° 0 mm 10 mps 761 mmHg 89%
    04:00 +9°C° 0 mm 10 mps 761 mmHg 87%
    05:00 +9°C° 0 mm 10 mps 762 mmHg 85%
    06:00 +9°C° 0 mm 10 mps 762 mmHg 83%
    07:00 +10°C° 0 mm 9 mps 763 mmHg 84%
    08:00 +10°C° 0 mm 9 mps 763 mmHg 85%
    09:00 +10°C° 0 mm 8 mps 764 mmHg 86%
    10:00 +11°C° 0.1 mm 8 mps 765 mmHg 83%
    11:00 +11°C° 0.1 mm 8 mps 765 mmHg 81%
    12:00 +12°C° 0.1 mm 7 mps 766 mmHg 79%
    13:00 +12°C° 0 mm 7 mps 766 mmHg 80%
    14:00 +11°C° 0 mm 6 mps 766 mmHg 81%
    15:00 +12°C° 0 mm 5 mps 766 mmHg 82%
    16:00 +10°C° 0 mm 5 mps 766 mmHg 86%
    17:00 +10°C° 0 mm 5 mps 766 mmHg 89%
    18:00 +9°C° 0 mm 5 mps 766 mmHg 93%
    19:00 +9°C° 0 mm 5 mps 766 mmHg 93%
    20:00 +9°C° 0 mm 5 mps 766 mmHg 92%
    21:00 +9°C° 0 mm 5 mps 766 mmHg 92%
    22:00 +9°C° 0 mm 6 mps 766 mmHg 92%
    23:00 +8°C° 0 mm 6 mps 765 mmHg 91%
    Show more